KM8V-8 Weather Reports


Display with metric or nautical units.
time (UTC)temp
F
wind
direction
speed
MPH
gust
MPH
rain 1hr
in
rain 24hr
in
rain mn
in
humidity
%
barometer
mb
20260510103518 47 23 2.0 5.0 0.00 0.25 0.02 82 1013.3
20260510103026 47 21 1.0 3.0 0.00 0.25 0.02 83 1013.1
20260510102526 47 2 2.0 4.0 0.00 0.25 0.02 83 1013.1
20260510102028 47 45 2.0 3.0 0.00 0.25 0.02 83 1013.0
20260510101527 47 29 2.0 3.0 0.00 0.25 0.02 83 1012.9
20260510101027 47 41 1.0 4.0 0.00 0.25 0.02 84 1012.8
20260510100527 47 9 1.0 3.0 0.00 0.25 0.02 84 1012.9
20260510100028 47 16 1.0 4.0 0.00 0.25 0.02 84 1012.9
20260510095527 47 19 2.0 3.0 0.00 0.25 0.02 84 1012.8
20260510095027 48 347 2.0 4.0 0.00 0.25 0.02 84 1012.8
20260510094527 48 27 1.0 2.0 0.00 0.25 0.02 84 1012.7
20260510094028 48 356 1.0 4.0 0.00 0.25 0.02 84 1012.6
20260510093528 48 336 0.0 2.0 0.00 0.25 0.02 84 1012.5
20260510093027 48 355 1.0 3.0 0.00 0.25 0.02 84 1012.5
20260510092528 48 20 1.0 2.0 0.00 0.25 0.02 84 1012.3
20260510092028 49 344 1.0 3.0 0.00 0.25 0.02 84 1012.2
20260510091528 49 339 2.0 4.0 0.00 0.25 0.02 83 1012.1
20260510091028 49 11 2.0 3.0 0.00 0.25 0.02 84 1012.0
20260510090529 49 4 1.0 3.0 0.00 0.25 0.02 84 1012.0
20260510090029 49 343 1.0 2.0 0.00 0.25 0.02 85 1012.0
20260510085528 48 353 2.0 4.0 0.00 0.25 0.02 86 1011.9
20260510085028 48 332 1.0 2.0 0.00 0.25 0.02 86 1011.8
20260510084528 48 321 1.0 2.0 0.00 0.25 0.02 87 1011.6
20260510084029 48 317 0.0 2.0 0.00 0.25 0.02 87 1011.6
20260510083528 48 343 0.0 2.0 0.00 0.25 0.02 87 1011.6
20260510083029 48 336 0.0 2.0 0.00 0.25 0.02 87 1011.5
20260510082529 48 336 1.0 2.0 0.00 0.25 0.02 87 1011.4
20260510082029 48 340 1.0 2.0 0.00 0.25 0.02 87 1011.4
20260510081529 48 338 1.0 2.0 0.00 0.25 0.02 87 1011.4
20260510081030 48 0.0 0.0 0.00 0.25 0.02 87 1011.3
20260510080529 48 0.0 0.0 0.00 0.25 0.02 86 1011.2
20260510080029 48 312 0.0 1.0 0.00 0.25 0.02 86 1011.0
20260510075529 48 315 1.0 2.0 0.00 0.25 0.02 87 1010.9
20260510075030 48 333 1.0 2.0 0.00 0.25 0.02 86 1010.7
20260510074529 48 0.0 0.0 0.00 0.25 0.02 85 1010.6
20260510074029 48 0.0 0.0 0.00 0.25 0.02 85 1010.6
20260510073530 49 0.0 0.0 0.00 0.25 0.02 85 1010.5
20260510073031 49 0.0 0.0 0.00 0.25 0.02 85 1010.5
20260510072530 49 11 0.0 1.0 0.00 0.25 0.02 85 1010.4
20260510072030 49 321 0.0 2.0 0.00 0.25 0.02 85 1010.4
20260510071531 49 329 0.0 3.0 0.00 0.25 0.02 84 1010.4
20260510071031 50 321 0.0 2.0 0.00 0.25 0.02 84 1010.4
20260510070531 50 334 0.0 1.0 0.00 0.25 0.02 83 1010.3
20260510070031 50 324 1.0 2.0 0.00 0.25 0.02 83 1010.3
20260510065516 50 345 1.0 2.0 0.00 0.25 0.02 82 1010.2
20260510065017 51 340 2.0 3.0 0.00 0.25 0.02 81 1010.2
20260510064531 51 341 1.0 3.0 0.00 0.25 0.02 81 1010.1
20260510064031 51 31 1.0 2.0 0.00 0.25 0.02 80 1010.1
20260510063531 51 60 1.0 2.0 0.00 0.25 0.02 80 1010.0
20260510063031 51 66 1.0 3.0 0.00 0.25 0.02 79 1010.0
20260510062531 51 67 1.0 3.0 0.00 0.25 0.02 79 1010.0
20260510062032 51 56 2.0 4.0 0.00 0.25 0.02 79 1010.0
20260510061531 51 64 2.0 4.0 0.00 0.25 0.02 79 1009.9
20260510061017 51 69 2.0 3.0 0.00 0.25 0.02 79 1009.9
20260510060517 51 80 2.0 5.0 0.00 0.25 0.02 81 1009.9
20260510060031 51 40 2.0 3.0 0.00 0.25 0.02 82 1010.0
20260510055518 51 59 2.0 3.0 0.01 0.25 0.02 83 1009.9
20260510055018 52 64 2.0 5.0 0.02 0.25 0.02 84 1009.8
20260510054517 52 77 3.0 7.0 0.02 0.25 0.02 85 1009.8
20260510054017 53 81 3.0 6.0 0.02 0.25 0.02 87 1009.8
20260510053518 55 59 4.0 9.0 0.02 0.25 0.02 89 1009.7
20260510053017 55 24 2.0 5.0 0.02 0.25 0.02 90 1009.6
20260510052517 56 351 1.0 4.0 0.02 0.25 0.02 90 1009.2
20260510052017 56 23 1.0 3.0 0.02 0.25 0.02 89 1009.0
20260510051517 56 29 1.0 2.0 0.02 0.25 0.02 88 1008.8
20260510051018 57 358 0.0 2.0 0.02 0.25 0.02 87 1008.6
20260510050517 57 343 1.0 2.0 0.02 0.25 0.02 87 1008.4
20260510050018 57 38 1.0 5.0 0.02 0.25 0.02 86 1008.4
20260510045518 57 319 2.0 4.0 0.01 0.24 0.01 86 1008.5
20260510045018 57 9 1.0 5.0 0.00 0.24 0.00 86 1008.3
20260510044518 57 1 2.0 3.0 0.00 0.23 0.00 86 1008.2
20260510044019 57 5 1.0 3.0 0.00 0.23 0.00 85 1008.0
20260510043518 57 348 1.0 5.0 0.00 0.23 0.00 84 1007.7
20260510043018 57 207 1.0 3.0 0.00 0.23 0.00 84 1007.2
20260510042518 57 215 0.0 2.0 0.00 0.23 0.00 83 1007.1
20260510042018 57 201 1.0 3.0 0.00 0.23 0.00 83 1007.1
20260510041518 57 208 3.0 5.0 0.00 0.23 0.00 83 1007.1
20260510041019 57 214 1.0 3.0 0.00 0.23 0.00 83 1007.0
20260510040520 58 210 1.0 3.0 0.00 0.23 0.00 84 1006.9
20260510040018 58 221 2.0 4.0 0.00 0.23 0.00 84 1006.9
20260510035519 58 204 1.0 4.0 0.00 0.23 0.00 84 1006.9
20260510035019 58 209 2.0 4.0 0.00 0.23 0.00 84 1006.9
20260510034519 58 217 1.0 3.0 0.00 0.24 0.00 83 1006.9
20260510034019 58 209 2.0 6.0 0.00 0.24 0.00 83 1007.0
20260510033519 57 205 4.0 9.0 0.00 0.24 0.00 84 1007.0
20260510033019 57 195 2.0 5.0 0.00 0.24 0.00 84 1007.0
20260510032520 57 217 2.0 4.0 0.00 0.24 0.00 84 1007.1
20260510032020 57 203 3.0 8.0 0.00 0.24 0.00 85 1007.1
20260510031519 56 211 2.0 4.0 0.00 0.24 0.00 87 1007.0
20260510031020 56 210 2.0 6.0 0.00 0.24 0.00 90 1006.9
20260510030520 55 194 3.0 6.0 0.00 0.24 0.00 91 1007.0
20260510030020 55 198 2.0 5.0 0.00 0.24 0.00 92 1007.0
20260510025520 55 254 0.0 1.0 0.00 0.24 0.00 92 1006.9
20260510025020 55 203 0.0 0.0 0.00 0.24 0.00 92 1006.9
20260510024520 55 225 1.0 4.0 0.00 0.24 0.00 93 1006.8
20260510024020 55 233 1.0 4.0 0.00 0.24 0.00 93 1006.8
20260510023521 55 318 0.0 2.0 0.00 0.24 0.00 93 1006.9
20260510023020 55 223 1.0 2.0 0.00 0.24 0.00 94 1007.0
20260510022520 55 208 2.0 5.0 0.00 0.24 0.00 94 1007.2
20260510022020 55 226 2.0 7.0 0.00 0.24 0.00 94 1007.3
20260510021521 54 218 1.0 5.0 0.00 0.24 0.00 94 1007.1
20260510021021 54 267 0.0 2.0 0.00 0.24 0.00 94 1006.7
20260510020520 54 248 0.0 1.0 0.00 0.24 0.00 93 1006.7
20260510020021 54 227 0.0 1.0 0.00 0.24 0.00 93 1006.6
20260510015521 54 0.0 0.0 0.00 0.24 0.00 93 1006.4
20260510015021 54 0.0 0.0 0.00 0.24 0.00 92 1006.4
20260510014521 54 0.0 0.0 0.00 0.24 0.00 92 1006.4
20260510014021 54 0.0 0.0 0.00 0.24 0.00 92 1006.4
20260510013521 55 0.0 0.0 0.00 0.24 0.00 91 1006.4
20260510013021 55 338 0.0 1.0 0.00 0.24 0.00 91 1006.3
20260510012521 55 0.0 0.0 0.00 0.24 0.00 90 1006.3
20260510012021 56 0.0 0.0 0.00 0.24 0.00 90 1006.2
20260510011522 56 208 0.0 1.0 0.00 0.24 0.00 89 1006.2
20260510011021 56 238 0.0 3.0 0.00 0.24 0.00 89 1006.1
20260510010522 56 176 0.0 2.0 0.00 0.24 0.00 89 1006.1
20260510010022 57 201 2.0 5.0 0.00 0.24 0.00 89 1006.1
20260510005522 57 188 1.0 4.0 0.00 0.24 0.00 89 1006.0
20260510005022 57 204 2.0 4.0 0.00 0.24 0.00 89 1006.0
20260510004522 57 217 2.0 3.0 0.00 0.24 0.00 90 1006.0
20260510004023 57 214 2.0 4.0 0.00 0.24 0.00 90 1006.0
20260510003516 57 214 2.0 5.0 0.00 0.24 0.00 90 1006.0
20260510003016 57 210 3.0 7.0 0.00 0.25 0.00 90 1006.1
20260510002522 57 213 2.0 4.0 0.00 0.25 0.00 90 1006.1
20260510002017 57 210 2.0 6.0 0.00 0.25 0.00 90 1006.0
20260510001523 58 225 2.0 4.0 0.00 0.25 0.00 89 1006.0
20260510001017 58 205 2.0 7.0 0.00 0.25 0.00 89 1005.9
20260510000523 58 193 2.0 5.0 0.01 0.25 0.00 89 1005.9
20260510000017 58 192 2.0 6.0 0.01 0.25 0.00 89 1005.8
20260509235523 58 200 4.0 8.0 0.01 0.25 0.25 90 1005.8
20260509235017 58 205 3.0 7.0 0.01 0.26 0.25 92 1005.8
20260509234517 58 207 2.0 6.0 0.01 0.26 0.25 92 1005.7
20260509234017 57 191 2.0 7.0 0.04 0.27 0.25 93 1005.7
20260509233523 57 200 1.0 3.0 0.09 0.27 0.25 93 1005.7
20260509233017 57 220 2.0 5.0 0.20 0.27 0.25 93 1005.7
20260509232518 57 208 3.0 8.0 0.21 0.28 0.25 93 1005.6
20260509232018 57 204 3.0 8.0 0.23 0.28 0.25 93 1005.6
20260509231517 57 185 4.0 9.0 0.23 0.28 0.25 93 1005.6
20260509231018 57 147 4.0 8.0 0.23 0.29 0.25 94 1005.8
20260509230518 57 184 3.0 6.0 0.23 0.29 0.25 93 1005.8
20260509230024 57 233 2.0 4.0 0.23 0.30 0.25 93 1005.7
20260509225523 57 29 2.0 4.0 0.23 0.30 0.25 93 1005.6
20260509225024 57 47 2.0 5.0 0.23 0.31 0.25 92 1005.7
20260509224518 58 212 3.0 12.0 0.22 0.31 0.24 90 1006.0
20260509224015 60 151 5.0 11.0 0.19 0.28 0.21 87 1005.8
20260509223518 63 209 5.0 13.0 0.14 0.24 0.16 82 1005.5
20260509223020 68 278 5.0 10.0 0.04 0.14 0.06 71 1005.0
20260509222518 69 236 4.0 11.0 0.02 0.13 0.04 58 1003.4
20260509222018 70 214 3.0 10.0 0.00 0.11 0.02 54 1002.7
20260509221519 70 203 5.0 15.0 0.00 0.11 0.02 53 1002.6
20260509221019 70 193 6.0 13.0 0.00 0.11 0.02 52 1002.7
20260509220518 70 197 6.0 14.0 0.00 0.11 0.02 52 1002.8
20260509220019 70 219 4.0 11.0 0.00 0.11 0.02 52 1002.7
20260509215518 70 209 4.0 13.0 0.00 0.11 0.02 53 1002.8
20260509215017 71 198 7.0 15.0 0.00 0.11 0.02 52 1002.7
20260509214516 71 194 4.0 12.0 0.00 0.11 0.02 52 1002.6
20260509214015 72 193 5.0 11.0 0.00 0.11 0.02 52 1002.5
20260509213519 72 191 4.0 10.0 0.00 0.11 0.02 51 1002.4
20260509213019 72 205 5.0 11.0 0.00 0.11 0.02 50 1002.4
20260509212521 72 208 4.0 9.0 0.00 0.11 0.02 53 1002.3
20260509212019 72 194 6.0 14.0 0.00 0.11 0.02 52 1002.3
20260509211519 72 203 5.0 14.0 0.00 0.11 0.02 52 1002.4
20260509211016 72 197 4.0 11.0 0.00 0.11 0.02 54 1002.5
20260509210516 71 201 5.0 10.0 0.00 0.11 0.02 54 1002.5
20260509210017 72 199 6.0 13.0 0.00 0.11 0.02 54 1002.7
20260509205520 72 191 5.0 10.0 0.00 0.11 0.02 55 1002.7
20260509205016 71 197 5.0 9.0 0.00 0.11 0.02 54 1002.8
20260509204520 71 207 4.0 10.0 0.00 0.11 0.02 55 1002.9
20260509204018 71 199 6.0 12.0 0.00 0.11 0.02 55 1003.0
20260509203520 71 195 7.0 17.0 0.00 0.11 0.02 55 1003.1
20260509203018 71 200 4.0 11.0 0.00 0.11 0.02 56 1003.2
20260509202517 71 199 6.0 14.0 0.00 0.11 0.02 55 1003.3
20260509202017 70 204 5.0 15.0 0.00 0.11 0.02 56 1003.4
20260509201517 70 194 6.0 12.0 0.00 0.12 0.02 56 1003.5
20260509201017 70 200 7.0 17.0 0.00 0.12 0.02 55 1003.5
20260509200518 70 200 5.0 11.0 0.00 0.12 0.02 56 1003.7
20260509200017 70 198 6.0 14.0 0.00 0.12 0.02 56 1003.7
20260509195518 70 198 7.0 13.0 0.00 0.12 0.02 55 1003.7
20260509195017 70 194 6.0 12.0 0.00 0.12 0.02 56 1003.7
20260509194516 71 203 6.0 12.0 0.00 0.12 0.02 56 1003.7
20260509194018 70 219 4.0 10.0 0.00 0.12 0.02 58 1003.9
20260509193522 70 203 5.0 9.0 0.00 0.12 0.02 59 1004.0
20260509193018 70 200 7.0 13.0 0.00 0.12 0.02 58 1004.0
20260509192518 70 193 5.0 12.0 0.00 0.12 0.02 58 1004.0
20260509192018 70 208 5.0 12.0 0.00 0.12 0.02 59 1004.1
20260509191518 69 206 5.0 12.0 0.00 0.12 0.02 60 1004.2
20260509191019 69 202 5.0 12.0 0.00 0.12 0.02 59 1004.3
20260509190518 69 202 5.0 10.0 0.00 0.12 0.02 60 1004.3
20260509190022 69 201 4.0 10.0 0.00 0.12 0.02 60 1004.4
20260509185522 69 202 4.0 9.0 0.00 0.12 0.02 61 1004.5
20260509185019 68 202 6.0 13.0 0.00 0.12 0.02 61 1004.6
20260509184516 68 205 5.0 9.0 0.00 0.12 0.02 61 1004.7
20260509184016 68 200 5.0 12.0 0.00 0.12 0.02 62 1004.7
20260509183519 67 201 5.0 15.0 0.00 0.12 0.02 62 1004.8
20260509183019 67 209 5.0 14.0 0.00 0.12 0.02 62 1004.8
20260509182520 67 207 6.0 13.0 0.00 0.12 0.02 61 1004.8
20260509182019 67 201 6.0 14.0 0.00 0.12 0.02 62 1004.8
20260509181517 66 199 6.0 12.0 0.00 0.12 0.02 62 1004.8
20260509181016 66 205 6.0 13.0 0.00 0.12 0.02 62 1004.8
20260509180516 67 196 5.0 10.0 0.00 0.12 0.02 62 1004.7
20260509180016 67 204 5.0 12.0 0.00 0.12 0.02 62 1004.7
20260509175516 67 215 4.0 9.0 0.00 0.12 0.02 63 1004.8
20260509175017 67 205 5.0 15.0 0.00 0.12 0.02 63 1004.8
20260509174516 67 199 4.0 11.0 0.00 0.12 0.02 64 1004.8
20260509174016 66 211 3.0 8.0 0.00 0.12 0.02 65 1004.9
20260509173520 66 205 5.0 12.0 0.00 0.12 0.02 63 1005.0
20260509173020 66 203 5.0 10.0 0.00 0.12 0.02 62 1005.2
20260509172520 66 216 3.0 11.0 0.00 0.12 0.02 65 1005.1
20260509172023 66 203 5.0 10.0 0.00 0.12 0.02 65 1005.1
20260509171517 66 199 4.0 8.0 0.00 0.12 0.02 66 1005.1
20260509171017 65 215 4.0 10.0 0.00 0.12 0.02 66 1005.1
20260509170517 65 195 5.0 10.0 0.00 0.12 0.02 66 1005.1
20260509170017 65 200 5.0 11.0 0.00 0.12 0.02 66 1005.1
20260509165517 65 202 4.0 9.0 0.00 0.12 0.02 67 1005.1
20260509165017 65 201 4.0 9.0 0.00 0.12 0.02 67 1005.2
20260509164518 64 208 3.0 6.0 0.00 0.12 0.02 68 1005.4
20260509164017 64 200 4.0 8.0 0.00 0.12 0.02 68 1005.3
20260509163517 64 199 5.0 9.0 0.00 0.12 0.02 67 1005.3
20260509163018 64 202 4.0 9.0 0.00 0.12 0.02 68 1005.3
20260509162517 64 217 4.0 11.0 0.00 0.12 0.02 69 1005.2
20260509162017 63 212 3.0 6.0 0.00 0.12 0.02 70 1005.3
20260509161518 63 198 4.0 9.0 0.00 0.12 0.02 69 1005.4
20260509161018 64 201 4.0 8.0 0.00 0.12 0.02 69 1005.5
20260509160518 64 208 4.0 8.0 0.00 0.12 0.02 68 1005.7
20260509160018 64 217 4.0 9.0 0.00 0.12 0.02 70 1005.8
20260509155518 63 203 2.0 6.0 0.00 0.12 0.02 71 1006.0
20260509155018 62 196 3.0 6.0 0.00 0.12 0.02 71 1006.0
20260509154530 62 230 2.0 5.0 0.00 0.12 0.02 73 1006.2
20260509154019 62 197 3.0 8.0 0.00 0.12 0.02 74 1006.2
20260509153518 61 212 3.0 7.0 0.00 0.12 0.02 75 1006.2
20260509153018 61 225 4.0 10.0 0.00 0.12 0.02 75 1006.1
20260509152518 61 200 4.0 9.0 0.00 0.12 0.02 76 1006.2
20260509152019 61 239 2.0 6.0 0.00 0.12 0.02 78 1006.2
20260509151531 60 198 3.0 5.0 0.00 0.12 0.02 77 1006.2
20260509151019 60 226 2.0 5.0 0.00 0.12 0.02 80 1006.3
20260509150520 59 194 3.0 7.0 0.00 0.12 0.02 80 1006.2
20260509150019 60 205 4.0 10.0 0.00 0.12 0.02 80 1006.2
20260509145519 60 206 3.0 8.0 0.00 0.12 0.02 80 1006.1
20260509145019 60 212 3.0 8.0 0.00 0.12 0.02 80 1006.1
20260509144519 59 199 4.0 11.0 0.00 0.12 0.02 81 1006.1
20260509144019 59 193 4.0 10.0 0.00 0.12 0.02 82 1006.1
20260509143519 59 194 4.0 11.0 0.00 0.12 0.02 82 1006.2
20260509143019 59 196 4.0 10.0 0.00 0.12 0.02 83 1006.2
20260509142519 59 203 4.0 8.0 0.00 0.12 0.02 84 1006.2
20260509142017 58 195 4.0 13.0 0.00 0.12 0.02 86 1006.2
20260509141516 58 204 2.0 5.0 0.00 0.12 0.02 87 1006.2
20260509141020 57 211 3.0 7.0 0.00 0.12 0.02 88 1006.2
20260509140520 57 200 4.0 8.0 0.00 0.12 0.02 88 1006.4
20260509140020 57 206 3.0 6.0 0.00 0.12 0.02 89 1006.5
20260509135520 57 211 3.0 10.0 0.00 0.12 0.02 89 1006.6
20260509135017 57 265 1.0 4.0 0.00 0.12 0.02 90 1006.6
20260509134520 57 206 3.0 7.0 0.00 0.12 0.02 90 1006.5
20260509134020 57 206 3.0 7.0 0.00 0.12 0.02 91 1006.5
20260509133520 56 209 3.0 7.0 0.00 0.12 0.02 92 1006.6
20260509133020 56 205 4.0 9.0 0.00 0.12 0.02 94 1006.6
20260509132517 56 198 5.0 12.0 0.00 0.12 0.02 97 1006.6
20260509132020 56 196 3.0 9.0 0.00 0.12 0.02 98 1006.7
20260509131521 56 206 2.0 7.0 0.00 0.12 0.02 99 1006.8
20260509131020 55 200 3.0 8.0 0.00 0.12 0.02 99 1006.8
20260509130519 55 214 2.0 4.0 0.00 0.12 0.02 100 1006.7
20260509130021 54 229 1.0 6.0 0.00 0.12 0.02 100 1006.7
20260509125518 54 217 1.0 3.0 0.00 0.12 0.02 99 1006.8
20260509125018 54 212 2.0 4.0 0.00 0.12 0.02 99 1006.8
20260509124518 54 228 1.0 3.0 0.00 0.12 0.02 99 1006.9
20260509124021 54 191 2.0 6.0 0.00 0.13 0.02 99 1006.9
20260509123518 54 233 1.0 3.0 0.00 0.14 0.02 99 1006.9
20260509123018 54 191 2.0 4.0 0.00 0.14 0.02 99 1006.9
20260509122519 54 202 1.0 4.0 0.00 0.15 0.02 99 1007.0
20260509122018 53 208 1.0 3.0 0.00 0.15 0.02 99 1007.0
20260509121518 53 225 1.0 5.0 0.00 0.17 0.02 99 1007.1
20260509121019 53 213 1.0 2.0 0.00 0.17 0.02 99 1007.1
20260509120519 53 204 1.0 4.0 0.00 0.17 0.02 99 1007.1
20260509120020 53 339 0.0 1.0 0.00 0.17 0.02 99 1007.1
20260509115519 53 194 1.0 2.0 0.00 0.17 0.02 99 1007.2
20260509115019 53 280 0.0 1.0 0.00 0.17 0.02 99 1007.1
20260509114519 53 230 0.0 2.0 0.00 0.17 0.02 99 1007.2
20260509114019 53 170 1.0 3.0 0.00 0.17 0.02 99 1007.2
20260509113519 52 219 0.0 2.0 0.00 0.17 0.02 99 1007.1
20260509113019 52 277 1.0 2.0 0.00 0.17 0.02 99 1007.1
20260509112519 52 207 1.0 3.0 0.00 0.17 0.02 99 1007.1
20260509112019 52 229 1.0 2.0 0.00 0.17 0.02 99 1007.1
20260509111519 52 211 0.0 3.0 0.00 0.17 0.02 99 1007.0
20260509111019 52 181 1.0 3.0 0.00 0.17 0.02 99 1007.0
20260509110521 52 264 0.0 1.0 0.00 0.17 0.02 99 1006.9
20260509110020 52 0.0 0.0 0.00 0.17 0.02 99 1006.9
20260509105520 52 190 1.0 3.0 0.00 0.17 0.02 99 1006.9
20260509105020 52 210 1.0 2.0 0.00 0.17 0.02 99 1006.8
20260509104520 52 258 0.0 2.0 0.00 0.17 0.02 99 1006.8
20260509104020 52 186 0.0 1.0 0.00 0.17 0.02 99 1006.7